EW0651 Weather Reports


Display with metric or nautical units.
time (UTC)temp
F
wind
direction
speed
MPH
gust
MPH
rain 1hr
in
rain 24hr
in
rain mn
in
humidity
%
barometer
mb
20260507103036 42 254 5.0 10.0 0.00 0.00 0.00 82 1013.3
20260507101535 42 230 5.0 11.0 0.00 0.00 0.00 81 1013.4
20260507100037 42 223 6.0 13.0 0.00 0.00 0.00 80 1013.5
20260507094532 43 255 6.0 13.0 0.00 0.00 0.00 80 1013.6
20260507093030 43 252 8.0 14.0 0.00 0.00 0.00 79 1013.6
20260507091528 43 258 9.0 13.0 0.00 0.00 0.00 78 1013.8
20260507090026 43 243 7.0 11.0 0.00 0.00 0.00 78 1013.9
20260507084524 44 245 8.0 15.0 0.00 0.00 0.00 77 1014.1
20260507083021 44 233 7.0 12.0 0.00 0.00 0.00 76 1014.2
20260507081517 45 247 6.0 10.0 0.00 0.00 0.00 75 1014.3
20260507080015 45 237 7.0 13.0 0.00 0.00 0.00 75 1014.6
20260507074525 45 238 8.0 14.0 0.00 0.00 0.00 74 1014.8
20260507073010 45 238 9.0 15.0 0.00 0.00 0.00 74 1015.1
20260507071508 46 252 7.0 13.0 0.00 0.00 0.00 72 1015.2
20260507070010 46 240 8.0 14.0 0.00 0.00 0.00 71 1015.3
20260507064503 47 250 7.0 14.0 0.00 0.00 0.00 70 1015.4
20260507063115 46 248 7.0 14.0 0.00 0.00 0.00 69 1015.7
20260507061558 47 243 8.0 12.0 0.00 0.00 0.00 68 1015.8
20260507060055 47 256 10.0 15.0 0.00 0.00 0.00 67 1015.8
20260507054556 47 252 11.0 17.0 0.00 0.00 0.00 64 1015.8
20260507053052 47 232 9.0 15.0 0.00 0.00 0.00 61 1015.9
20260507051549 47 247 8.0 15.0 0.00 0.00 0.00 59 1015.9
20260507050047 48 247 9.0 14.0 0.00 0.00 0.00 58 1016.0
20260507044546 48 263 6.0 13.0 0.00 0.00 0.00 57 1016.1
20260507043048 48 238 8.0 10.0 0.00 0.00 0.00 56 1016.3
20260507041547 48 242 8.0 11.0 0.00 0.00 0.00 55 1016.3
20260507040048 48 250 7.0 11.0 0.00 0.00 0.00 51 1016.4
20260507034557 49 248 5.0 9.0 0.00 0.00 0.00 47 1016.4
20260507033100 49 219 4.0 8.0 0.00 0.00 0.00 46 1016.6
20260507031542 49 248 4.0 7.0 0.00 0.00 0.00 44 1016.6
20260507030041 49 238 4.0 6.0 0.00 0.00 0.00 43 1016.6
20260507024551 49 173 2.0 3.0 0.00 0.00 0.00 42 1016.5
20260507023040 49 232 0.0 1.0 0.00 0.00 0.00 42 1016.4
20260507021540 49 232 0.0 1.0 0.00 0.00 0.00 43 1016.2
20260507020039 51 232 0.0 2.0 0.00 0.00 0.00 39 1016.1
20260507014538 51 254 1.0 2.0 0.00 0.00 0.00 38 1016.1
20260507013040 51 263 0.0 3.0 0.00 0.00 0.00 37 1016.0
20260507011540 54 256 3.0 6.0 0.00 0.00 0.00 35 1016.0
20260507010040 56 298 3.0 5.0 0.00 0.00 0.00 30 1016.1
20260507004536 57 296 6.0 9.0 0.00 0.00 0.00 30 1016.1
20260507003036 58 286 8.0 13.0 0.00 0.00 0.00 28 1016.2
20260507001556 59 336 10.0 17.0 0.00 0.00 0.00 27 1016.2
20260507000035 58 341 10.0 15.0 0.00 0.00 0.00 28 1016.4
20260506234546 59 248 8.0 13.0 0.00 0.00 0.00 29 1016.5
20260506233033 59 298 11.0 14.0 0.00 0.00 0.00 27 1016.5
20260506231535 60 254 10.0 18.0 0.00 0.00 0.00 26 1016.7
20260506230031 58 323 9.0 15.0 0.00 0.00 0.00 30 1016.9
20260506224531 60 283 12.0 21.0 0.00 0.00 0.00 27 1016.9
20260506223031 59 301 10.0 16.0 0.00 0.00 0.00 27 1016.9
20260506221528 60 332 6.0 14.0 0.00 0.00 0.00 27 1016.9
20260506220034 60 284 5.0 14.0 0.00 0.00 0.00 34 1017.2
20260506214529 59 355 8.0 15.0 0.00 0.00 0.00 28 1017.3
20260506213024 61 286 9.0 18.0 0.00 0.00 0.00 28 1017.5
20260506211523 59 317 10.0 17.0 0.00 0.00 0.00 30 1017.6
20260506210022 58 273 8.0 15.0 0.00 0.00 0.00 29 1017.8
20260506204523 59 360 12.0 17.0 0.00 0.00 0.00 29 1018.1
20260506203021 57 271 7.0 16.0 0.00 0.00 0.00 29 1018.2
20260506201521 58 279 8.0 19.0 0.00 0.00 0.00 31 1018.3
20260506200019 57 360 4.0 12.0 0.00 0.00 0.00 30 1018.4
20260506194531 57 322 12.0 15.0 0.00 0.00 0.00 30 1018.7
20260506193018 58 270 11.0 19.0 0.00 0.00 0.00 29 1018.7
20260506191518 58 346 7.0 19.0 0.00 0.00 0.00 30 1018.8
20260506190019 56 310 9.0 18.0 0.00 0.00 0.00 30 1018.9
20260506184516 57 283 10.0 17.0 0.00 0.00 0.00 32 1019.1
20260506183017 57 303 7.0 16.0 0.00 0.00 0.00 29 1019.0
20260506181516 55 333 12.0 17.0 0.00 0.00 0.00 30 1019.1
20260506180013 58 290 10.0 19.0 0.00 0.00 0.00 28 1019.4
20260506174511 58 287 9.0 22.0 0.00 0.00 0.00 29 1019.5
20260506173009 57 11 13.0 21.0 0.00 0.00 0.00 31 1019.7
20260506171505 56 317 12.0 17.0 0.00 0.00 0.00 32 1019.8
20260506170002 55 320 8.0 16.0 0.00 0.00 0.00 34 1019.9
20260506164501 55 325 8.0 13.0 0.00 0.00 0.00 37 1020.1
20260506163058 54 319 11.0 17.0 0.00 0.00 0.00 33 1020.1
20260506161600 54 300 8.0 12.0 0.00 0.00 0.00 34 1020.1
20260506160109 51 46 4.0 11.0 0.00 0.00 0.00 39 1020.2
20260506154553 52 307 7.0 12.0 0.00 0.00 0.00 35 1020.1
20260506153053 51 305 6.0 15.0 0.00 0.00 0.00 36 1020.3
20260506151548 51 281 5.0 10.0 0.00 0.00 0.00 40 1020.1
20260506150049 49 242 2.0 10.0 0.00 0.00 0.00 43 1020.2
20260506144547 49 291 4.0 10.0 0.00 0.00 0.00 46 1020.1
20260506143040 48 211 2.0 6.0 0.00 0.00 0.00 49 1020.1
20260506141536 47 304 3.0 4.0 0.00 0.00 0.00 47 1020.1
20260506140037 47 311 3.0 5.0 0.00 0.00 0.00 49 1020.1
20260506134533 47 315 1.0 4.0 0.00 0.00 0.00 50 1019.9
20260506133031 46 11 1.0 5.0 0.00 0.00 0.00 51 1019.8
20260506131543 45 355 4.0 6.0 0.00 0.00 0.00 53 1019.6
20260506130037 43 350 3.0 6.0 0.00 0.00 0.00 58 1019.5
20260506124523 41 344 3.0 6.0 0.00 0.00 0.00 64 1019.3
20260506123020 40 344 4.0 6.0 0.00 0.00 0.00 65 1019.1
20260506121516 39 348 3.0 5.0 0.00 0.00 0.00 67 1018.8
20260506120017 39 350 2.0 4.0 0.00 0.00 0.00 66 1018.5
20260506114511 39 5 0.0 0.0 0.00 0.00 0.00 65 1018.4
20260506113007 39 5 0.0 0.0 0.00 0.00 0.00 64 1018.2
20260506111505 39 5 0.0 0.0 0.00 0.00 0.00 66 1018.1
20260506110004 38 5 0.0 0.0 0.00 0.00 0.00 68 1017.9
20260506104600 39 5 0.0 0.0 0.00 0.00 0.00 66 1017.9